Weather History for Danbury, CT

Change the Weather History Date:

Saturday, August 31, 2013

  Actual Average Record
Temperature  
Mean Temperature 76 °F -  
Max Temperature 81 °F 80 °F 97 °F (1953)
Min Temperature 71 °F 59 °F 38 °F (1965)
Cooling Degree Days 10    
Growing Degree Days 26 (Base 50)    
Moisture  
Dew Point 69 °F    
Average Humidity 78    
Maximum Humidity 84    
Minimum Humidity 69    
Precipitation  
Precipitation 0.00 in - - ()
Sea Level Pressure  
Sea Level Pressure 29.85 in    
Wind  
Wind Speed 7 mph (SSW)    
Max Wind Speed 9 mph    
Max Gust Speed -    
Visibility 7 miles    
Events Thunderstorm    
Averages and records for this station are not official NWS values.
T = Trace of Precipitation, MM = Missing Value Source: NWS Daily Summary

Daily Weather History Graph

Daily Weather History Graph

Search for Another Location

Airport:

Trip Planner

Search our weather history database for the weather conditions in past years. The results will help you decide how hot, cold, wet, or windy it might be!

Date:

Astronomy

Aug. 31, 2013 Rise Set
Actual Time 6:19 AM EDT 7:28 PM EDT
Civil Twilight 5:50 AM EDT 7:56 PM EDT
Nautical Twilight 5:16 AM EDT 8:30 PM EDT
Astronomical Twilight 4:41 AM EDT 9:05 PM EDT
Moon 1:44 AM EDT (8/31) 4:26 PM EDT (8/31)
Length of Visible Light 14h 05m
Length of Day
13h 08m
Waning Crescent, 21% of the Moon is Illuminated
Aug 31
Waning Crescent
Sep 5
New
Sep 12
First Quarter
Sep 19
Full
Sep 26
Last Quarter

Hourly Weather History & Observations

Time (EDT) Temp. Heat Index Dew Point Humidity Pressure Visibility Wind Dir Wind Speed Gust Speed Precip Events Conditions
12:53 AM 73.9 °F - 68.0 °F 82% 29.86 in 6.0 mi SSW 6.9 mph - N/A   Haze
1:53 AM 73.0 °F - 66.9 °F 81% 29.86 in 6.0 mi SSW 8.1 mph - N/A   Haze
2:53 AM 73.0 °F - 66.9 °F 81% 29.85 in 7.0 mi SW 8.1 mph - N/A   Clear
3:53 AM 73.0 °F - 66.9 °F 81% 29.85 in 7.0 mi SW 8.1 mph - N/A   Mostly Cloudy
4:53 AM 73.0 °F - 66.9 °F 81% 29.84 in 7.0 mi SW 8.1 mph - N/A   Scattered Clouds
5:53 AM 72.0 °F - 66.9 °F 84% 29.85 in 7.0 mi WSW 8.1 mph - N/A   Partly Cloudy
6:14 AM 71.6 °F - 66.2 °F 83% 29.87 in 6.0 mi SW 8.1 mph - N/A   Haze
6:53 AM 72.0 °F - 66.9 °F 84% 29.85 in 5.0 mi SW 8.1 mph - N/A   Haze
7:53 AM 73.0 °F - 66.9 °F 81% 29.85 in 6.0 mi SSW 8.1 mph - N/A   Haze
8:53 AM 73.9 °F - 66.9 °F 79% 29.86 in 6.0 mi WSW 9.2 mph - N/A   Haze
9:53 AM 75.9 °F - 68.0 °F 76% 29.86 in 6.0 mi SW 8.1 mph - N/A   Haze
10:11 AM 75.2 °F - 68.0 °F 78% 29.87 in 6.0 mi SSW 9.2 mph - N/A   Haze
10:53 AM 77.0 °F - 68.0 °F 74% 29.86 in 7.0 mi WSW 5.8 mph - N/A   Mostly Cloudy
11:17 AM 78.8 °F - 68.0 °F 69% 29.87 in 7.0 mi SW 9.2 mph - N/A   Scattered Clouds
11:24 AM 78.8 °F - 69.8 °F 74% 29.87 in 7.0 mi SW 8.1 mph - N/A   Mostly Cloudy
11:53 AM 79.0 °F - 68.0 °F 69% 29.85 in 7.0 mi SW 9.2 mph - N/A   Mostly Cloudy
12:53 PM 80.1 °F 82.9 °F 69.1 °F 69% 29.85 in 6.0 mi SSW 5.8 mph - N/A   Haze
1:53 PM 80.1 °F 83.6 °F 71.1 °F 74% 29.84 in 6.0 mi South 6.9 mph - 0.00 in   Haze
2:53 PM 79.0 °F - 70.0 °F 74% 29.83 in 6.0 mi South 8.1 mph - N/A   Haze
3:53 PM 79.0 °F - 70.0 °F 74% 29.82 in 5.0 mi South 6.9 mph - 0.00 in   Haze
4:53 PM 79.0 °F - 70.0 °F 74% 29.82 in 5.0 mi South 5.8 mph - 0.00 in   Haze
5:53 PM 80.1 °F 83.6 °F 71.1 °F 74% 29.81 in 6.0 mi South 3.5 mph - N/A   Haze
6:53 PM 79.0 °F - 70.0 °F 74% 29.82 in 7.0 mi South 4.6 mph - N/A   Mostly Cloudy
7:53 PM 77.0 °F - 70.0 °F 79% 29.82 in 8.0 mi South 4.6 mph - N/A   Clear
8:53 PM 75.9 °F - 70.0 °F 82% 29.82 in 8.0 mi South 9.2 mph - N/A   Clear
9:53 PM 75.9 °F - 70.0 °F 82% 29.85 in 8.0 mi Calm Calm - N/A   Scattered Clouds
10:53 PM 75.0 °F - 70.0 °F 84% 29.85 in 7.0 mi Calm Calm - N/A Thunderstorm Overcast
11:10 PM 75.2 °F - 69.8 °F 83% 29.86 in 7.0 mi Calm Calm - N/A   Scattered Clouds
11:53 PM 75.0 °F - 70.0 °F 84% 29.85 in 8.0 mi Calm Calm - N/A   Clear